| time (UTC) | temp F | wind direction | speed MPH | gust MPH | rain 1hr in | rain 24hr in | rain mn in | humidity % | barometer mb |
| 20260906134616 | 62 | 360 | 5.0 | 13.0 | 0.00 | 0.00 | 0.00 | 52 | 1015.8 |
| 20260906133105 | 61 | 360 | 7.0 | 12.0 | 0.00 | 0.00 | 0.00 | 50 | 1015.6 |
| 20260906131557 | 61 | 360 | 4.0 | 8.0 | 0.00 | 0.00 | 0.00 | 51 | 1015.4 |
| 20260906130109 | 61 | 360 | 4.0 | 11.0 | 0.00 | 0.00 | 0.00 | 50 | 1015.4 |
| 20260906124558 | 61 | 360 | 6.0 | 12.0 | 0.00 | 0.00 | 0.00 | 49 | 1015.3 |
| 20260906123101 | 61 | 360 | 6.0 | 11.0 | 0.00 | 0.00 | 0.00 | 48 | 1015.3 |
| 20260906121611 | 61 | 360 | 6.0 | 10.0 | 0.00 | 0.00 | 0.00 | 48 | 1015.3 |
| 20260906120058 | 61 | 360 | 5.0 | 11.0 | 0.00 | 0.00 | 0.00 | 48 | 1015.3 |
| 20260906114601 | 61 | 360 | 5.0 | 11.0 | 0.00 | 0.00 | 0.00 | 48 | 1015.3 |
| 20260906113112 | 61 | 360 | 3.0 | 11.0 | 0.00 | 0.00 | 0.00 | 48 | 1015.3 |
| 20260906111556 | 61 | 360 | 6.0 | 10.0 | 0.00 | 0.00 | 0.00 | 48 | 1015.2 |
| 20260906110058 | 62 | 360 | 3.0 | 9.0 | 0.00 | 0.00 | 0.00 | 47 | 1015.2 |
| 20260906104553 | 62 | 360 | 5.0 | 11.0 | 0.00 | 0.00 | 0.00 | 47 | 1015.1 |
| 20260906103057 | 63 | 360 | 5.0 | 10.0 | 0.00 | 0.00 | 0.00 | 47 | 1015.0 |
| 20260906101603 | 65 | 142 | 6.0 | 11.0 | 0.00 | 0.00 | 0.00 | 44 | 1014.9 |
| 20260906100101 | 65 | 134 | 8.0 | 14.0 | 0.00 | 0.00 | 0.00 | 43 | 1014.7 |
| 20260906094559 | 65 | 126 | 10.0 | 14.0 | 0.00 | 0.00 | 0.00 | 44 | 1014.7 |
| 20260906093105 | 64 | 155 | 8.0 | 16.0 | 0.00 | 0.00 | 0.00 | 45 | 1014.7 |
| 20260906091557 | 63 | 360 | 5.0 | 16.0 | 0.00 | 0.00 | 0.00 | 47 | 1014.7 |
| 20260906090112 | 61 | 360 | 8.0 | 13.0 | 0.00 | 0.00 | 0.00 | 48 | 1014.5 |
| 20260906084603 | 61 | 360 | 7.0 | 11.0 | 0.00 | 0.00 | 0.00 | 49 | 1014.5 |
| 20260906083057 | 62 | 360 | 3.0 | 6.0 | 0.00 | 0.00 | 0.00 | 51 | 1014.5 |
| 20260906081601 | 62 | 360 | 3.0 | 6.0 | 0.00 | 0.00 | 0.00 | 49 | 1014.5 |
| 20260906080106 | 62 | 360 | 4.0 | 9.0 | 0.00 | 0.00 | 0.00 | 47 | 1014.5 |
| 20260906074557 | 62 | 360 | 5.0 | 11.0 | 0.00 | 0.00 | 0.00 | 47 | 1014.5 |
| 20260906073057 | 62 | 360 | 5.0 | 12.0 | 0.00 | 0.00 | 0.00 | 47 | 1014.6 |
| 20260906071611 | 62 | 360 | 4.0 | 8.0 | 0.00 | 0.00 | 0.00 | 48 | 1014.6 |
| 20260906070059 | 63 | 360 | 5.0 | 8.0 | 0.00 | 0.00 | 0.00 | 46 | 1014.5 |
| 20260906064602 | 63 | 360 | 4.0 | 9.0 | 0.00 | 0.00 | 0.00 | 48 | 1014.6 |
| 20260906063059 | 63 | 360 | 4.0 | 10.0 | 0.00 | 0.00 | 0.00 | 42 | 1014.6 |
| 20260906061605 | 62 | 360 | 5.0 | 12.0 | 0.00 | 0.00 | 0.00 | 43 | 1014.5 |
| 20260906060147 | 62 | 360 | 4.0 | 6.0 | 0.00 | 0.00 | 0.00 | 47 | 1014.5 |
| 20260906054601 | 63 | 360 | 3.0 | 9.0 | 0.00 | 0.00 | 0.00 | 48 | 1014.4 |
| 20260906053057 | 64 | 360 | 2.0 | 6.0 | 0.00 | 0.00 | 0.00 | 46 | 1014.4 |
| 20260906051558 | 64 | 360 | 1.0 | 6.0 | 0.00 | 0.00 | 0.00 | 49 | 1014.4 |
| 20260906050112 | 65 | 360 | 3.0 | 8.0 | 0.00 | 0.00 | 0.00 | 42 | 1014.2 |
| 20260906044554 | 65 | 360 | 4.0 | 8.0 | 0.00 | 0.00 | 0.00 | 44 | 1014.2 |
| 20260906043102 | 66 | 360 | 5.0 | 9.0 | 0.00 | 0.00 | 0.00 | 42 | 1014.2 |
| 20260906041557 | 66 | 360 | 4.0 | 9.0 | 0.00 | 0.00 | 0.00 | 42 | 1014.0 |
| 20260906034602 | 68 | 360 | 3.0 | 5.0 | 0.00 | 0.00 | 0.00 | 43 | 1013.9 |
| 20260906033104 | 68 | 360 | 3.0 | 6.0 | 0.00 | 0.00 | 0.00 | 43 | 1013.8 |
| 20260906031620 | 69 | 360 | 4.0 | 9.0 | 0.00 | 0.00 | 0.00 | 42 | 1013.6 |
| 20260906030058 | 70 | 360 | 4.0 | 9.0 | 0.00 | 0.00 | 0.00 | 40 | 1013.4 |
| 20260906024603 | 71 | 360 | 2.0 | 4.0 | 0.00 | 0.00 | 0.00 | 38 | 1013.2 |
| 20260906023111 | 73 | 360 | 2.0 | 7.0 | 0.00 | 0.00 | 0.00 | 38 | 1012.9 |
| 20260906021558 | 75 | 360 | 2.0 | 6.0 | 0.00 | 0.00 | 0.00 | 37 | 1012.8 |
| 20260906014604 | 79 | 180 | 5.0 | 12.0 | 0.00 | 0.00 | 0.00 | 30 | 1012.8 |
| 20260906013100 | 80 | 195 | 5.0 | 9.0 | 0.00 | 0.00 | 0.00 | 31 | 1012.8 |
| 20260906011605 | 82 | 174 | 3.0 | 12.0 | 0.00 | 0.00 | 0.00 | 32 | 1012.9 |
| 20260906010114 | 83 | 225 | 4.0 | 14.0 | 0.00 | 0.00 | 0.00 | 29 | 1013.0 |
| 20260906004601 | 83 | 156 | 8.0 | 16.0 | 0.00 | 0.00 | 0.00 | 28 | 1013.0 |
| 20260906003057 | 84 | 188 | 5.0 | 15.0 | 0.00 | 0.00 | 0.00 | 26 | 1013.1 |
| 20260906001556 | 84 | 180 | 6.0 | 21.0 | 0.00 | 0.00 | 0.00 | 26 | 1013.1 |
| 20260906000109 | 84 | 200 | 9.0 | 18.0 | 0.00 | 0.00 | 0.00 | 26 | 1013.3 |
| 20260905234602 | 85 | 184 | 8.0 | 18.0 | 0.00 | 0.00 | 0.00 | 24 | 1013.5 |
| 20260905233103 | 85 | 205 | 11.0 | 23.0 | 0.00 | 0.00 | 0.00 | 24 | 1013.6 |
| 20260905231616 | 85 | 200 | 5.0 | 19.0 | 0.00 | 0.00 | 0.00 | 28 | 1013.6 |
| 20260905230107 | 86 | 163 | 9.0 | 16.0 | 0.00 | 0.00 | 0.00 | 26 | 1013.6 |
| 20260905224558 | 86 | 185 | 4.0 | 9.0 | 0.00 | 0.00 | 0.00 | 27 | 1013.6 |
| 20260905223056 | 86 | 191 | 6.0 | 17.0 | 0.00 | 0.00 | 0.00 | 26 | 1013.9 |
| 20260905221602 | 86 | 198 | 7.0 | 24.0 | 0.00 | 0.00 | 0.00 | 26 | 1014.1 |
| 20260905220101 | 86 | 136 | 9.0 | 19.0 | 0.00 | 0.00 | 0.00 | 27 | 1014.3 |
| 20260905214604 | 86 | 171 | 9.0 | 18.0 | 0.00 | 0.00 | 0.00 | 30 | 1014.4 |
| 20260905213056 | 85 | 195 | 9.0 | 20.0 | 0.00 | 0.00 | 0.00 | 29 | 1014.6 |
| 20260905211600 | 85 | 217 | 10.0 | 23.0 | 0.00 | 0.00 | 0.00 | 28 | 1014.8 |
| 20260905210114 | 85 | 136 | 12.0 | 24.0 | 0.00 | 0.00 | 0.00 | 27 | 1014.9 |
| 20260905204605 | 85 | 169 | 8.0 | 20.0 | 0.00 | 0.00 | 0.00 | 28 | 1015.0 |
| 20260905203108 | 85 | 118 | 5.0 | 19.0 | 0.00 | 0.00 | 0.00 | 28 | 1015.0 |
| 20260905201610 | 85 | 232 | 8.0 | 23.0 | 0.00 | 0.00 | 0.00 | 29 | 1015.2 |
| 20260905200127 | 84 | 179 | 11.0 | 22.0 | 0.00 | 0.00 | 0.00 | 27 | 1015.3 |
| 20260905194602 | 84 | 149 | 13.0 | 23.0 | 0.00 | 0.00 | 0.00 | 29 | 1015.4 |
| 20260905193101 | 84 | 174 | 11.0 | 19.0 | 0.00 | 0.00 | 0.00 | 29 | 1015.6 |
| 20260905191558 | 84 | 160 | 8.0 | 18.0 | 0.00 | 0.00 | 0.00 | 28 | 1015.9 |
| 20260905190105 | 83 | 147 | 9.0 | 20.0 | 0.00 | 0.00 | 0.00 | 27 | 1016.0 |
| 20260905184607 | 83 | 160 | 7.0 | 17.0 | 0.00 | 0.00 | 0.00 | 28 | 1016.2 |
| 20260905183059 | 83 | 153 | 9.0 | 22.0 | 0.00 | 0.00 | 0.00 | 29 | 1016.3 |
| 20260905181603 | 83 | 207 | 9.0 | 18.0 | 0.00 | 0.00 | 0.00 | 29 | 1016.4 |
| 20260905180116 | 83 | 178 | 6.0 | 16.0 | 0.00 | 0.00 | 0.00 | 30 | 1016.6 |
| 20260905174600 | 82 | 191 | 5.0 | 13.0 | 0.00 | 0.00 | 0.00 | 30 | 1016.6 |
| 20260905173121 | 82 | 202 | 10.0 | 18.0 | 0.00 | 0.00 | 0.00 | 31 | 1016.7 |
| 20260905171558 | 81 | 191 | 9.0 | 22.0 | 0.00 | 0.00 | 0.00 | 31 | 1016.7 |
| 20260905164610 | 80 | 158 | 11.0 | 23.0 | 0.00 | 0.00 | 0.00 | 30 | 1016.6 |
| 20260905163101 | 79 | 142 | 10.0 | 23.0 | 0.00 | 0.00 | 0.00 | 33 | 1016.5 |
| 20260905161604 | 78 | 135 | 12.0 | 24.0 | 0.00 | 0.00 | 0.00 | 33 | 1016.4 |
| 20260905160105 | 78 | 147 | 9.0 | 19.0 | 0.00 | 0.00 | 0.00 | 37 | 1016.4 |
| 20260905154605 | 77 | 178 | 11.0 | 18.0 | 0.00 | 0.00 | 0.00 | 36 | 1016.4 |
| 20260905153101 | 76 | 140 | 10.0 | 18.0 | 0.00 | 0.00 | 0.00 | 36 | 1016.4 |
| 20260905151559 | 74 | 119 | 3.0 | 11.0 | 0.00 | 0.00 | 0.00 | 44 | 1016.4 |
| 20260905150100 | 72 | 117 | 5.0 | 10.0 | 0.00 | 0.00 | 0.00 | 43 | 1016.5 |
| 20260905144559 | 69 | 142 | 3.0 | 8.0 | 0.00 | 0.00 | 0.00 | 49 | 1016.3 |
| 20260905143102 | 65 | 84 | 3.0 | 6.0 | 0.00 | 0.00 | 0.00 | 49 | 1016.4 |
| 20260905141558 | 64 | 43 | 3.0 | 9.0 | 0.00 | 0.00 | 0.00 | 50 | 1016.1 |